Time,TemperatureF,DewpointF,PressureIn,WindDirection,WindDirectionDegrees,WindSpeedMPH,WindSpeedGustMPH,Humidity,HourlyPrecipIn,Conditions,Clouds,dailyrainin,SolarRadiationWatts/m^2,SoftwareType,DateUTC
2013-04-20 00:03:00,66.0,66.0,-100.00,SSW,204,5.0,15.0,100,0.04,,,0.46,0.000000,,2013-04-20 04:03:00,
2013-04-20 00:12:00,66.0,66.0,-100.00,SSW,204,5.0,15.0,100,0.04,,,0.46,0.000000,,2013-04-20 04:12:00,
2013-04-20 00:23:00,66.0,66.0,-100.00,SSW,204,5.0,15.0,100,0.04,,,0.46,0.000000,,2013-04-20 04:23:00,
2013-04-20 00:53:00,65.0,65.0,-100.00,SSW,194,4.0,17.0,100,0.04,,,0.50,0.000000,,2013-04-20 04:53:00,
2013-04-20 01:02:00,65.0,65.0,-100.00,SSW,194,4.0,17.0,100,0.04,,,0.50,0.000000,,2013-04-20 05:02:00,
2013-04-20 01:12:00,65.0,65.0,-100.00,SSW,194,4.0,17.0,100,0.04,,,0.50,0.000000,,2013-04-20 05:12:00,
2013-04-20 01:22:00,65.0,65.0,-100.00,SSW,194,4.0,17.0,100,0.04,,,0.50,0.000000,,2013-04-20 05:22:00,
2013-04-20 01:52:00,60.0,60.0,-100.00,WNW,297,8.0,16.0,99,0.06,,,0.56,0.000000,,2013-04-20 05:52:00,
2013-04-20 02:02:00,60.0,60.0,-100.00,WNW,297,8.0,16.0,99,0.06,,,0.56,0.000000,,2013-04-20 06:02:00,
2013-04-20 02:12:00,60.0,60.0,-100.00,WNW,297,8.0,16.0,99,0.06,,,0.56,0.000000,,2013-04-20 06:12:00,
2013-04-20 02:21:00,60.0,60.0,-100.00,WNW,297,8.0,16.0,99,0.06,,,0.56,0.000000,,2013-04-20 06:21:00,
2013-04-20 02:52:00,52.0,52.0,-100.00,WNW,303,8.0,23.0,100,0.26,,,0.82,0.000000,,2013-04-20 06:52:00,
2013-04-20 03:02:00,52.0,52.0,-100.00,WNW,303,8.0,23.0,100,0.26,,,0.82,0.000000,,2013-04-20 07:02:00,
2013-04-20 03:11:00,52.0,52.0,-100.00,WNW,303,8.0,23.0,100,0.26,,,0.82,0.000000,,2013-04-20 07:11:00,
2013-04-20 03:22:00,52.0,52.0,-100.00,WNW,303,8.0,23.0,100,0.26,,,0.82,0.000000,,2013-04-20 07:22:00,
2013-04-20 03:52:00,51.0,51.0,-100.00,WNW,289,8.0,16.0,100,0.09,,,0.91,0.000000,,2013-04-20 07:52:00,
2013-04-20 04:02:00,51.0,51.0,-100.00,WNW,289,8.0,16.0,100,0.09,,,0.91,0.000000,,2013-04-20 08:02:00,
2013-04-20 04:11:00,51.0,51.0,-100.00,WNW,289,8.0,16.0,100,0.09,,,0.91,0.000000,,2013-04-20 08:11:00,
2013-04-20 04:21:00,51.0,51.0,-100.00,WNW,289,8.0,16.0,100,0.09,,,0.91,0.000000,,2013-04-20 08:21:00,
2013-04-20 04:52:00,51.0,51.0,-100.00,WNW,295,7.0,16.0,100,0.10,,,1.01,0.000000,,2013-04-20 08:52:00,
2013-04-20 05:02:00,51.0,51.0,-100.00,WNW,295,7.0,16.0,100,0.10,,,1.01,0.000000,,2013-04-20 09:02:00,
2013-04-20 05:12:00,51.0,51.0,-100.00,WNW,295,7.0,16.0,100,0.10,,,1.01,0.000000,,2013-04-20 09:12:00,
2013-04-20 05:22:00,51.0,51.0,-100.00,WNW,295,7.0,16.0,100,0.10,,,1.01,0.000000,,2013-04-20 09:22:00,
2013-04-20 05:53:00,50.0,50.0,-100.00,NW,316,6.0,14.0,100,0.12,,,1.13,0.000000,,2013-04-20 09:53:00,
2013-04-20 06:03:00,50.0,50.0,-100.00,NW,316,6.0,14.0,100,0.12,,,1.13,0.000000,,2013-04-20 10:03:00,
2013-04-20 06:13:00,50.0,50.0,-100.00,NW,316,6.0,14.0,100,0.12,,,1.13,0.000000,,2013-04-20 10:13:00,
2013-04-20 06:23:00,50.0,50.0,-100.00,NW,316,6.0,14.0,100,0.12,,,1.13,0.000000,,2013-04-20 10:23:00,
2013-04-20 06:53:00,49.0,49.0,-100.00,WNW,299,5.0,11.0,100,0.01,,,1.14,0.000000,,2013-04-20 10:53:00,
2013-04-20 07:03:00,49.0,49.0,-100.00,WNW,299,5.0,11.0,100,0.01,,,1.14,0.000000,,2013-04-20 11:03:00,
2013-04-20 07:12:00,49.0,49.0,-100.00,WNW,299,5.0,11.0,100,0.01,,,1.14,0.000000,,2013-04-20 11:12:00,
2013-04-20 07:23:00,49.0,49.0,-100.00,WNW,299,5.0,11.0,100,0.01,,,1.14,0.000000,,2013-04-20 11:23:00,
2013-04-20 07:53:00,50.0,50.0,-100.00,WNW,293,3.0,9.0,100,0.00,,,1.14,21.000000,,2013-04-20 11:53:00,
2013-04-20 08:02:00,50.0,50.0,-100.00,WNW,293,3.0,9.0,100,0.00,,,1.14,21.000000,,2013-04-20 12:02:00,
2013-04-20 08:11:00,50.0,50.0,-100.00,WNW,293,3.0,9.0,100,0.00,,,1.14,21.000000,,2013-04-20 12:11:00,
2013-04-20 08:23:00,50.0,50.0,-100.00,WNW,293,3.0,9.0,100,0.00,,,1.14,21.000000,,2013-04-20 12:23:00,
2013-04-20 08:52:00,52.0,46.0,-100.00,WNW,296,7.0,14.0,79,0.00,,,1.14,127.000000,,2013-04-20 12:52:00,
2013-04-20 09:02:00,52.0,46.0,-100.00,WNW,296,7.0,14.0,79,0.00,,,1.14,127.000000,,2013-04-20 13:02:00,
2013-04-20 09:11:00,52.0,46.0,-100.00,WNW,296,7.0,14.0,79,0.00,,,1.14,127.000000,,2013-04-20 13:11:00,
2013-04-20 09:22:00,52.0,46.0,-100.00,WNW,296,7.0,14.0,79,0.00,,,1.14,127.000000,,2013-04-20 13:22:00,
2013-04-20 10:52:00,53.0,35.0,-100.00,WNW,294,11.0,22.0,51,-99.99,,,1.14,290.000000,,2013-04-20 14:52:00,
2013-04-20 11:02:00,53.0,35.0,-100.00,WNW,294,11.0,22.0,51,-99.99,,,1.14,290.000000,,2013-04-20 15:02:00,
2013-04-20 11:12:00,53.0,35.0,-100.00,WNW,294,11.0,22.0,51,-99.99,,,1.14,290.000000,,2013-04-20 15:12:00,
2013-04-20 11:21:00,53.0,35.0,-100.00,WNW,294,11.0,22.0,51,-99.99,,,1.14,290.000000,,2013-04-20 15:21:00,
2013-04-20 11:53:00,54.0,33.0,-100.00,WNW,294,9.0,18.0,45,0.00,,,1.14,376.000000,,2013-04-20 15:53:00,
2013-04-20 12:03:00,54.0,33.0,-100.00,WNW,294,9.0,18.0,45,0.00,,,1.14,376.000000,,2013-04-20 16:03:00,
2013-04-20 12:12:00,54.0,33.0,-100.00,WNW,294,9.0,18.0,45,0.00,,,1.14,376.000000,,2013-04-20 16:12:00,
2013-04-20 12:23:00,54.0,33.0,-100.00,WNW,294,9.0,18.0,45,0.00,,,1.14,376.000000,,2013-04-20 16:23:00,
2013-04-20 12:53:00,53.0,31.0,-100.00,WNW,300,10.0,23.0,43,0.00,,,1.14,396.000000,,2013-04-20 16:53:00,
2013-04-20 13:03:00,53.0,31.0,-100.00,WNW,300,10.0,23.0,43,0.00,,,1.14,396.000000,,2013-04-20 17:03:00,
2013-04-20 13:12:00,53.0,31.0,-100.00,WNW,300,10.0,23.0,43,0.00,,,1.14,396.000000,,2013-04-20 17:12:00,
2013-04-20 13:23:00,53.0,31.0,-100.00,WNW,300,10.0,23.0,43,0.00,,,1.14,396.000000,,2013-04-20 17:23:00,
2013-04-20 13:52:00,54.0,31.0,-100.00,WNW,295,9.0,23.0,42,0.00,,,1.14,621.000000,,2013-04-20 17:52:00,
2013-04-20 14:02:00,54.0,31.0,-100.00,WNW,295,9.0,23.0,42,0.00,,,1.14,621.000000,,2013-04-20 18:02:00,
2013-04-20 14:13:00,54.0,31.0,-100.00,WNW,295,9.0,23.0,42,0.00,,,1.14,621.000000,,2013-04-20 18:13:00,
2013-04-20 14:22:00,54.0,31.0,-100.00,WNW,295,9.0,23.0,42,0.00,,,1.14,621.000000,,2013-04-20 18:22:00,
2013-04-20 14:53:00,56.0,32.0,-100.00,WNW,282,10.0,18.0,40,0.00,,,1.14,504.000000,,2013-04-20 18:53:00,
2013-04-20 15:02:00,56.0,32.0,-100.00,WNW,282,10.0,18.0,40,0.00,,,1.14,504.000000,,2013-04-20 19:02:00,
2013-04-20 15:11:00,56.0,32.0,-100.00,WNW,282,10.0,18.0,40,0.00,,,1.14,504.000000,,2013-04-20 19:11:00,
2013-04-20 15:22:00,56.0,32.0,-100.00,WNW,282,10.0,18.0,40,0.00,,,1.14,504.000000,,2013-04-20 19:22:00,
2013-04-20 15:52:00,58.0,31.0,-100.00,WNW,284,13.0,23.0,36,0.00,,,1.14,573.000000,,2013-04-20 19:52:00,
2013-04-20 16:02:00,58.0,31.0,-100.00,WNW,284,13.0,23.0,36,0.00,,,1.14,573.000000,,2013-04-20 20:02:00,
2013-04-20 16:12:00,58.0,31.0,-100.00,WNW,284,13.0,23.0,36,0.00,,,1.14,573.000000,,2013-04-20 20:12:00,
2013-04-20 16:22:00,58.0,31.0,-100.00,WNW,284,13.0,23.0,36,0.00,,,1.14,573.000000,,2013-04-20 20:22:00,
2013-04-20 16:52:00,58.0,30.0,-100.00,WNW,290,10.0,24.0,34,0.00,,,1.14,426.000000,,2013-04-20 20:52:00,
2013-04-20 17:02:00,58.0,30.0,-100.00,WNW,290,10.0,24.0,34,0.00,,,1.14,426.000000,,2013-04-20 21:02:00,
2013-04-20 17:12:00,58.0,30.0,-100.00,WNW,290,10.0,24.0,34,0.00,,,1.14,426.000000,,2013-04-20 21:12:00,
2013-04-20 17:22:00,58.0,30.0,-100.00,WNW,290,10.0,24.0,34,0.00,,,1.14,426.000000,,2013-04-20 21:22:00,
2013-04-20 17:53:00,58.0,30.0,-100.00,WNW,289,9.0,20.0,34,0.00,,,1.14,307.000000,,2013-04-20 21:53:00,
2013-04-20 18:03:00,58.0,30.0,-100.00,WNW,289,9.0,20.0,34,0.00,,,1.14,307.000000,,2013-04-20 22:03:00,
2013-04-20 18:13:00,58.0,30.0,-100.00,WNW,289,9.0,20.0,34,0.00,,,1.14,307.000000,,2013-04-20 22:13:00,
2013-04-20 18:23:00,58.0,30.0,-100.00,WNW,289,9.0,20.0,34,0.00,,,1.14,307.000000,,2013-04-20 22:23:00,
2013-04-20 18:53:00,59.0,29.0,-100.00,WNW,289,11.0,23.0,32,0.00,,,1.14,317.000000,,2013-04-20 22:53:00,
2013-04-20 19:02:00,59.0,29.0,-100.00,WNW,289,11.0,23.0,32,0.00,,,1.14,317.000000,,2013-04-20 23:02:00,
2013-04-20 19:12:00,59.0,29.0,-100.00,WNW,289,11.0,23.0,32,0.00,,,1.14,317.000000,,2013-04-20 23:12:00,
2013-04-20 19:22:00,59.0,29.0,-100.00,WNW,289,11.0,23.0,32,0.00,,,1.14,317.000000,,2013-04-20 23:22:00,
2013-04-20 19:53:00,56.0,29.0,-100.00,WNW,294,6.0,16.0,36,0.00,,,1.14,130.000000,,2013-04-20 23:53:00,
2013-04-20 20:01:00,56.0,29.0,-100.00,WNW,294,6.0,16.0,36,0.00,,,1.14,130.000000,,2013-04-21 00:01:00,
2013-04-20 20:12:00,56.0,29.0,-100.00,WNW,294,6.0,16.0,36,0.00,,,1.14,130.000000,,2013-04-21 00:12:00,
2013-04-20 20:22:00,56.0,29.0,-100.00,WNW,294,6.0,16.0,36,0.00,,,1.14,130.000000,,2013-04-21 00:22:00,
2013-04-20 20:52:00,54.0,30.0,-100.00,WNW,297,5.0,12.0,40,0.00,,,1.14,7.000000,,2013-04-21 00:52:00,
2013-04-20 21:01:00,54.0,30.0,-100.00,WNW,297,5.0,12.0,40,0.00,,,1.14,7.000000,,2013-04-21 01:01:00,
2013-04-20 21:12:00,54.0,30.0,-100.00,WNW,297,5.0,12.0,40,0.00,,,1.14,7.000000,,2013-04-21 01:12:00,
2013-04-20 21:22:00,54.0,30.0,-100.00,WNW,297,5.0,12.0,40,0.00,,,1.14,7.000000,,2013-04-21 01:22:00,
2013-04-20 21:52:00,53.0,31.0,-100.00,NW,313,4.0,12.0,43,0.00,,,1.14,0.000000,,2013-04-21 01:52:00,
2013-04-20 22:02:00,53.0,31.0,-100.00,NW,313,4.0,12.0,43,0.00,,,1.14,0.000000,,2013-04-21 02:02:00,
2013-04-20 22:11:00,53.0,31.0,-100.00,NW,313,4.0,12.0,43,0.00,,,1.14,0.000000,,2013-04-21 02:11:00,
2013-04-20 22:22:00,53.0,31.0,-100.00,NW,313,4.0,12.0,43,0.00,,,1.14,0.000000,,2013-04-21 02:22:00,
2013-04-20 22:52:00,52.0,31.0,-100.00,NW,315,5.0,11.0,45,0.00,,,0.72,0.000000,,2013-04-21 02:52:00,
2013-04-20 23:02:00,52.0,31.0,-100.00,NW,315,5.0,11.0,45,0.00,,,0.72,0.000000,,2013-04-21 03:02:00,
2013-04-20 23:11:00,52.0,31.0,-100.00,NW,315,5.0,11.0,45,0.00,,,0.72,0.000000,,2013-04-21 03:11:00,
2013-04-20 23:22:00,52.0,31.0,-100.00,NW,315,5.0,11.0,45,0.00,,,0.72,0.000000,,2013-04-21 03:22:00,
2013-04-20 23:53:00,51.0,33.0,-100.00,NNW,327,5.0,14.0,50,0.00,,,0.68,0.000000,,2013-04-21 03:53:00,